Погода на Острове Командатуба

Бразилия     15°20′50″S   39°01′57″W
темп.,
°C
ветер,
м/с
пор.,
м/с
влажн.,
%
обл.,
%
осадки,
мм/ч
давл.,
гПа
погр.,
м
27 февраля, сб
сб2700:00+24св258524 0.0 1013402
03:00+23св128734 0.1 1012458
06:00+24св028499 0.1 1013399
09:00+26всв358474 1.1 1015776
12:00+29в446635 0.9 10141171
15:00+28вюв446526 1.1 10111046
18:00+25вюв357941 0.1 1011418
21:00+25в248529 0.3 1013326
28 февраля, вс
вс2800:00+24вюв248833 2.1 1013300
03:00+24в128667 7.3 1012195
06:00+23ююз138923 1.3 1012151
09:00+25вюв368650 3.9 1013403
12:00+27вюв478497 2.6 1013749
15:00+26вюв478782 5.3 1011790
18:00+25вюв478910 1.4 1011490
21:00+25вюв488921 1.6 1012511
1 марта, пн
пн100:00+24юв368996 0.2 1012420
03:00+23вюв369189 2.5 1011327
06:00+24юв478998 5.2 1012433
09:00+27вюв467199 6.2 10131136
12:00+28вюв4563100 0.0 10131233
15:00+28вюв466188 0.0 10111201
18:00+25в477355 0.0 1011600
21:00+24вюв377960 0.0 1013598
2 марта, вт
вт200:00+24в368423 0.3 1013515
03:00+23в248411 0.3 1012466
06:00+23в138412 0.0 1013481
09:00+28вюв346310 0.0 10151129
12:00+28в45604 0.0 10141092
15:00+28вюв456325 0.0 10121058
18:00+25вюв377649 0.0 1013567
21:00+25в378438 0.1 1015519
3 марта, ср
ср300:00+24вюв36871 0.3 1015449
03:00+23в23884 0.7 1014352
06:00+23юз138929 1.1 1015219
09:00+26в358243 2.8 1017827
12:00+28в445939 0.3 10161123
15:00+28в345622 0.3 10141046
18:00+25вюв24690 0.0 1014405
21:00+24вюв25780 0.0 1015491